| time (UTC) | temp F | wind direction | speed knots | gust knots | rain 1hr in | rain 24hr in | rain mn in | humidity % | barometer mb |
| 20260509184624 | 56 | 219 | 6.1 | 10.4 | 0.01 | 0.27 | 0.15 | 88 | 1007.5 |
| 20260509183047 | 55 | 165 | 4.3 | 7.8 | 0.01 | 0.27 | 0.15 | 91 | 1007.8 |
| 20260509181548 | 55 | 194 | 3.5 | 9.6 | 0.01 | 0.27 | 0.15 | 92 | 1007.7 |
| 20260509180046 | 54 | 188 | 6.1 | 9.6 | 0.01 | 0.26 | 0.14 | 92 | 1007.7 |
| 20260509174549 | 53 | 211 | 3.5 | 9.6 | 0.01 | 0.26 | 0.14 | 93 | 1007.8 |
| 20260509173042 | 53 | 190 | 5.2 | 9.6 | 0.01 | 0.26 | 0.14 | 95 | 1007.8 |
| 20260509171546 | 52 | 250 | 5.2 | 9.6 | 0.01 | 0.26 | 0.14 | 96 | 1007.8 |
| 20260509170048 | 52 | 219 | 5.2 | 9.6 | 0.01 | 0.25 | 0.13 | 97 | 1007.6 |
| 20260509164544 | 51 | 232 | 6.1 | 9.6 | 0.01 | 0.25 | 0.13 | 97 | 1007.8 |
| 20260509163105 | 50 | 215 | 7.0 | 14.8 | 0.01 | 0.25 | 0.13 | 97 | 1007.8 |
| 20260509161547 | 51 | 211 | 7.0 | 13.0 | 0.01 | 0.25 | 0.13 | 98 | 1007.7 |
| 20260509160049 | 50 | 236 | 7.0 | 11.3 | 0.01 | 0.24 | 0.12 | 98 | 1007.6 |
| 20260509154548 | 50 | 232 | 7.0 | 11.3 | 0.01 | 0.24 | 0.12 | 98 | 1007.4 |
| 20260509153044 | 50 | 233 | 5.2 | 10.4 | 0.01 | 0.24 | 0.12 | 98 | 1007.5 |
| 20260509151555 | 49 | 220 | 7.0 | 12.2 | 0.01 | 0.24 | 0.12 | 98 | 1007.6 |
| 20260509150042 | 49 | 227 | 5.2 | 11.3 | 0.01 | 0.23 | 0.11 | 98 | 1007.6 |
| 20260509144542 | 49 | 215 | 5.2 | 10.4 | 0.01 | 0.23 | 0.11 | 98 | 1007.6 |
| 20260509143046 | 49 | 230 | 5.2 | 9.6 | 0.01 | 0.23 | 0.11 | 98 | 1007.6 |
| 20260509141555 | 49 | 223 | 6.1 | 10.4 | 0.01 | 0.23 | 0.11 | 97 | 1007.5 |
| 20260509140057 | 49 | 235 | 6.1 | 12.2 | 0.01 | 0.22 | 0.10 | 97 | 1007.6 |
| 20260509134542 | 49 | 206 | 6.1 | 12.2 | 0.01 | 0.22 | 0.10 | 97 | 1007.7 |
| 20260509133041 | 49 | 235 | 4.3 | 10.4 | 0.01 | 0.22 | 0.10 | 97 | 1007.6 |
| 20260509131548 | 48 | 239 | 6.1 | 9.6 | 0.01 | 0.22 | 0.10 | 97 | 1007.6 |
| 20260509130050 | 48 | 204 | 4.3 | 11.3 | 0.01 | 0.21 | 0.09 | 97 | 1007.8 |
| 20260509124548 | 48 | 199 | 3.5 | 11.3 | 0.01 | 0.21 | 0.09 | 97 | 1007.8 |
| 20260509123054 | 48 | 203 | 4.3 | 7.8 | 0.01 | 0.21 | 0.09 | 97 | 1007.9 |
| 20260509121547 | 47 | 199 | 5.2 | 11.3 | 0.01 | 0.21 | 0.09 | 97 | 1008.1 |
| 20260509120048 | 47 | 186 | 4.3 | 7.0 | 0.01 | 0.20 | 0.08 | 97 | 1008.0 |
| 20260509114544 | 47 | 201 | 2.6 | 4.3 | 0.01 | 0.20 | 0.08 | 97 | 1007.9 |
| 20260509113104 | 46 | 192 | 1.7 | 2.6 | 0.01 | 0.20 | 0.08 | 97 | 1007.9 |
| 20260509111547 | 46 | 153 | 0.9 | 5.2 | 0.01 | 0.20 | 0.08 | 97 | 1007.9 |
| 20260509110041 | 46 | 0 | 0.0 | 0.0 | 0.01 | 0.19 | 0.07 | 97 | 1007.8 |
| 20260509104556 | 46 | 0 | 0.0 | 0.0 | 0.01 | 0.19 | 0.07 | 97 | 1008.0 |
| 20260509103055 | 46 | 0 | 0.0 | 1.7 | 0.01 | 0.19 | 0.07 | 97 | 1008.2 |
| 20260509101545 | 46 | 0 | 0.0 | 0.0 | 0.01 | 0.19 | 0.07 | 97 | 1008.1 |
| 20260509100059 | 46 | 0 | 0.0 | 0.0 | 0.01 | 0.18 | 0.06 | 97 | 1008.3 |
| 20260509094553 | 46 | 0 | 0.0 | 0.0 | 0.01 | 0.18 | 0.06 | 97 | 1008.4 |
| 20260509093048 | 46 | 0 | 0.0 | 0.0 | 0.01 | 0.18 | 0.06 | 97 | 1008.6 |
| 20260509091602 | 46 | 0 | 0.0 | 0.0 | 0.01 | 0.18 | 0.06 | 97 | 1008.6 |
| 20260509090044 | 46 | 0 | 0.0 | 0.0 | 0.00 | 0.17 | 0.05 | 97 | 1008.5 |
| 20260509084541 | 45 | 0 | 0.0 | 0.0 | 0.00 | 0.17 | 0.05 | 97 | 1008.5 |
| 20260509083044 | 45 | 0 | 0.0 | 0.0 | 0.01 | 0.17 | 0.05 | 97 | 1008.3 |
| 20260509081556 | 45 | 0 | 0.0 | 0.0 | 0.01 | 0.17 | 0.05 | 97 | 1008.6 |
| 20260509080050 | 45 | 0 | 0.0 | 0.0 | 0.01 | 0.17 | 0.05 | 97 | 1008.6 |
| 20260509074546 | 45 | 0 | 0.0 | 0.0 | 0.01 | 0.17 | 0.05 | 97 | 1008.5 |
| 20260509073045 | 45 | 0 | 0.0 | 1.7 | 0.00 | 0.16 | 0.04 | 97 | 1008.5 |
| 20260509071548 | 45 | 0 | 0.0 | 0.9 | 0.01 | 0.16 | 0.04 | 97 | 1008.3 |
| 20260509070041 | 45 | 71 | 0.9 | 1.7 | 0.01 | 0.16 | 0.04 | 97 | 1008.5 |
| 20260509064550 | 45 | 0 | 0.0 | 0.0 | 0.01 | 0.16 | 0.04 | 97 | 1008.6 |
| 20260509063054 | 45 | 0 | 0.0 | 1.7 | 0.02 | 0.16 | 0.04 | 96 | 1009.0 |
| 20260509061605 | 45 | 69 | 0.9 | 2.6 | 0.01 | 0.15 | 0.03 | 96 | 1009.1 |
| 20260509060047 | 45 | 74 | 1.7 | 2.6 | 0.01 | 0.15 | 0.03 | 96 | 1009.3 |
| 20260509054557 | 45 | 44 | 1.7 | 5.2 | 0.02 | 0.15 | 0.03 | 96 | 1009.4 |
| 20260509053058 | 46 | 72 | 2.6 | 3.5 | 0.01 | 0.14 | 0.02 | 96 | 1009.6 |
| 20260509051549 | 46 | 76 | 2.6 | 3.5 | 0.01 | 0.14 | 0.02 | 96 | 1009.8 |
| 20260509050044 | 46 | 0 | 0.0 | 0.0 | 0.02 | 0.14 | 0.02 | 96 | 1010.3 |
| 20260509044547 | 46 | 0 | 0.0 | 0.0 | 0.01 | 0.13 | 0.01 | 96 | 1010.5 |
| 20260509043045 | 46 | 0 | 0.0 | 0.0 | 0.02 | 0.13 | 0.01 | 95 | 1010.6 |
| 20260509041547 | 46 | 87 | 0.0 | 1.7 | 0.02 | 0.13 | 0.01 | 95 | 1010.8 |
| 20260509040045 | 46 | 0 | 0.0 | 1.7 | 0.01 | 0.12 | 0.00 | 95 | 1010.8 |
| 20260509034554 | 47 | 0 | 0.0 | 0.0 | 0.02 | 0.12 | 0.12 | 95 | 1011.1 |
| 20260509033046 | 47 | 0 | 0.0 | 0.0 | 0.01 | 0.11 | 0.11 | 95 | 1011.3 |
| 20260509031549 | 47 | 0 | 0.0 | 0.0 | 0.02 | 0.11 | 0.11 | 94 | 1011.5 |
| 20260509030049 | 47 | 0 | 0.0 | 0.0 | 0.02 | 0.11 | 0.11 | 94 | 1011.5 |
| 20260509024542 | 47 | 0 | 0.0 | 0.0 | 0.01 | 0.10 | 0.10 | 93 | 1011.3 |
| 20260509023047 | 47 | 0 | 0.0 | 0.0 | 0.01 | 0.10 | 0.10 | 92 | 1011.2 |
| 20260509021547 | 47 | 0 | 0.0 | 0.0 | 0.01 | 0.09 | 0.09 | 91 | 1011.2 |
| 20260509020044 | 47 | 0 | 0.0 | 0.0 | 0.01 | 0.09 | 0.09 | 89 | 1011.2 |
| 20260509014540 | 47 | 0 | 0.0 | 0.0 | 0.01 | 0.09 | 0.09 | 90 | 1011.0 |
| 20260509013038 | 47 | 0 | 0.0 | 0.0 | 0.01 | 0.09 | 0.09 | 90 | 1011.0 |
| 20260509011543 | 48 | 0 | 0.0 | 0.0 | 0.00 | 0.08 | 0.08 | 87 | 1010.6 |
| 20260509010041 | 48 | 0 | 0.0 | 0.9 | 0.00 | 0.08 | 0.08 | 85 | 1010.6 |
| 20260509004541 | 48 | 0 | 0.0 | 1.7 | 0.00 | 0.08 | 0.08 | 84 | 1010.5 |
| 20260509003042 | 49 | 1 | 0.0 | 0.9 | 0.00 | 0.08 | 0.08 | 83 | 1010.5 |
| 20260509001538 | 49 | 0 | 0.0 | 1.7 | 0.00 | 0.08 | 0.08 | 83 | 1009.9 |
| 20260509000044 | 49 | 0 | 0.0 | 2.6 | 0.01 | 0.08 | 0.08 | 83 | 1009.9 |
| 20260508234546 | 49 | 0 | 0.0 | 0.0 | 0.01 | 0.08 | 0.08 | 82 | 1010.0 |
| 20260508233041 | 49 | 219 | 0.0 | 3.5 | 0.01 | 0.08 | 0.08 | 84 | 1010.1 |
| 20260508231622 | 49 | 283 | 0.9 | 3.5 | 0.01 | 0.08 | 0.08 | 82 | 1010.3 |
| 20260508230057 | 50 | 275 | 1.7 | 7.8 | 0.00 | 0.07 | 0.07 | 80 | 1010.2 |
| 20260508224544 | 50 | 244 | 3.5 | 10.4 | 0.00 | 0.07 | 0.07 | 77 | 1010.2 |
| 20260508223047 | 51 | 207 | 6.1 | 11.3 | 0.00 | 0.07 | 0.07 | 75 | 1010.2 |
| 20260508221550 | 51 | 230 | 7.8 | 14.8 | 0.00 | 0.07 | 0.07 | 74 | 1010.2 |
| 20260508220048 | 51 | 230 | 6.1 | 11.3 | 0.00 | 0.07 | 0.07 | 75 | 1010.2 |
| 20260508214618 | 52 | 248 | 4.3 | 11.3 | 0.00 | 0.07 | 0.07 | 76 | 1010.2 |
| 20260508213050 | 52 | 220 | 6.1 | 13.0 | 0.00 | 0.07 | 0.07 | 76 | 1010.3 |
| 20260508211544 | 52 | 237 | 6.1 | 15.6 | 0.00 | 0.07 | 0.07 | 77 | 1010.1 |
| 20260508210039 | 52 | 232 | 7.0 | 13.0 | 0.00 | 0.07 | 0.07 | 80 | 1010.0 |
| 20260508204549 | 52 | 234 | 5.2 | 12.2 | 0.01 | 0.07 | 0.07 | 81 | 1010.2 |
| 20260508203038 | 52 | 248 | 7.0 | 12.2 | 0.02 | 0.07 | 0.07 | 83 | 1010.2 |
| 20260508201547 | 51 | 240 | 5.2 | 12.2 | 0.03 | 0.07 | 0.07 | 85 | 1010.4 |
| 20260508200046 | 50 | 230 | 3.5 | 9.6 | 0.07 | 0.07 | 0.07 | 88 | 1010.4 |
| 20260508194554 | 49 | 300 | 2.6 | 7.0 | 0.06 | 0.06 | 0.06 | 89 | 1010.6 |
| 20260508193048 | 48 | 258 | 1.7 | 5.2 | 0.05 | 0.05 | 0.05 | 89 | 1010.8 |
| 20260508191547 | 48 | 280 | 1.7 | 11.3 | 0.04 | 0.04 | 0.04 | 86 | 1011.2 |
| 20260508190047 | 55 | 302 | 4.3 | 9.6 | 0.00 | 0.00 | 0.00 | 68 | 1010.9 |